星链-30562 (STARLINK-30562 )

导读 | 豆包AI

STARLINK-30562是美国太空探索技术公司(SpaceX)星链星座的一颗低轨互联网卫星,于2023年10月9日发射升空。星链计划旨在构建全球卫星互联网,为偏远基础设施匮乏地区提供高速低延迟宽带服务。该卫星属于星链第二代组网卫星,助力SpaceX推进卫星直连手机服务测试,进一步完善全球覆盖网络。目前星链在轨运行卫星超九千颗,后续计划持续扩容至数万颗。

基本信息
目录编号:
58033
目录名称:
STARLINK-30562
国际标识:
2023-156F
轨道中心:
EARTH
卫星名称:
星链-30562
卫星全名:
星链-30562 (STARLINK-30562 )
卫星状态:
在轨 (已飞行934 天)
发射日期:
2023-10-09 UTC
国别 :
美国 (US)
星等 :
--
轨道信息
数据来源 国际轨道数据 AOE轨道数据
星历时间 2026-04-30T05:00:57+0800
21小时前
查看轨道信息
2026-04-26T03:00:00+0800
4天前
查看轨道信息
半长轴 6853.367km 6853.317km
偏心率 0.0001259 0.0001843
轨道倾角 53.161° 53.159°
近地点辐角 82.417° 95.945°
升交点赤经 290.139° 309.116°
平近点角 277.697° 74.100°
近地点 474.367km 473.916km
远地点 476.093km 476.444km
周期 94.106分钟 94.105分钟
每日圈数 15.30195 15.302118
详细信息
固有亮度:
5
最大亮度:
0.3
卫星平台:
Starlink v2.0 mini
覆盖范围:
全球
运营商:
太空探索技术公司
运营商所在国:
美国
制造商(研发单位):
太空探索技术公司
制造商所在国:
美国
使用方式:
暂无
卫星简介
星链(Starlink)计划是由太空探索技术公司(SpaceX)提出的一个巨型低轨卫星互联网星座项目,计划在2019年至2024年间在太空搭建由约1.2万颗卫星组成的“星链”网络,其中1584颗将部署在地球上空550千米处的近地轨道,并从2020年开始工作。该卫星仍在工作。
2D轨道图
3D轨道图
轨道高度分析图
轨道倾角分析图
轨道综合分析图
查看轨道综合分析图